Skip Page Navigation
NASA JPL Caltech
NASA Logo - Jet Propulsion Laboratory + View the NASA Portal
+ Near-Earth Object (NEO) Program
Search JPL
JPL Home Earth Solar System Stars & Galaxies Technology
JPL Solar System Dynamics
BODIES ORBITS EPHEMERIDES TOOLS PHYSICAL DATA DISCOVERY FAQ SITE MAP
JPL Small-Body Database Browser
Search: [ help ]  
4446 Carolyn (1985 TT)
Classification: Outer Main-belt Asteroid          SPK-ID: 2004446
Ephemeris | Orbit Diagram | Orbital Elements | Physical Parameters | Discovery Circumstances ]

[ hide orbit diagram ]
Orbit Diagram
Note: Make sure you have Java enabled on your browser to see the applet. This applet is provided as a 3D orbit visualization tool. The applet was implemented using 2-body methods, and hence should not be used for determining accurate long-term trajectories (over several years or decades) or planetary encounter circumstances. For accurate long-term ephemerides, please instead use our Horizons system.
Orbit Viewer

Additional Notes: the orbits shown in the applet are color coded. The planets are white lines, and the asteroid/comet is a blue line. The bright white line indicates the portion of the orbit that is above the ecliptic plane, and the darker portion is below the ecliptic plane. Likewise for the asteroid/comet orbit, the light blue indicates the portion above the ecliptic plane, and the dark blue the portion below the ecliptic plane.

Orbit Viewer applet originally written and kindly provided by Osamu Ajiki (AstroArts), and further modified by Ron Baalke (JPL).


Orbital Elements at Epoch 2456400.5 (2013-Apr-18.0) TDB
Reference: JPL 1 (heliocentric ecliptic J2000)
 Element Value Uncertainty (1-sigma)   Units 
e .2795413929555709 6.3547e-08  
a 3.984725471307711 7.0061e-08 AU
q 2.87082976251281 2.6156e-07 AU
i 7.239480453559043 8.1423e-06 deg
node 189.0353692616794 5.5469e-05 deg
peri 117.1442019409783 5.751e-05 deg
M 213.3839442466419 2.0255e-05 deg
tp 2457583.746059928950
(2016-Jul-14.24605993)
0.00018464 JED
period 2905.333794349228
7.95
7.6624e-05
2.098e-07
d
yr
n .123910030819931 3.2679e-09 deg/d
Q 5.098621180102612 8.9646e-08 AU
  Orbit Determination Parameters
   # obs. used (total)      1043  
   data-arc span      12997 days (35.58 yr)  
   first obs. used      1977-09-09  
   last obs. used      2013-04-10  
   planetary ephem.      DE405  
   SB-pert. ephem.      SB405-CPV-2  
   condition code      0  
   fit RMS      .5385  
   data source      ORB  
   producer      Otto Matic  
   solution date      2013-Apr-29 13:03:39  

Additional Information
 Earth MOID = 1.86574 AU 
 T_jup = 2.973 
[ show covariance matrix ]

Ephemeris | Orbit Diagram | Orbital Elements | Physical Parameters | Discovery Circumstances ]

Physical Parameter Table
Parameter Symbol Value Units Sigma Reference Notes
absolute magnitude H 11.1 mag n/a PDS3 (MPC 17272)  

4446 Carolyn (1985 TT)          Discovered 1985-Oct-15 by Bowell, E. at Flagstaff
Reference: DISCOVERY.DBLast Updated: 2003-08-29

Alternate Designations
 1985 TT = 1977 RC6 
Ephemeris | Orbit Diagram | Orbital Elements | Physical Parameters | Discovery Circumstances ]
ABOUT SSD CREDITS/AWARDS PRIVACY/COPYRIGHT GLOSSARY LINKS
FirstGov 2013-May-22 12:08 UT
(server date/time)  
NASA Home Page
Site Manager:   Donald K. Yeomans
Webmaster  Alan B. Chamberlin